Location: Caseificio
(44.7500°N, 11.0500°E)
Time: 22:47:22
(UTC+00:00)

MOS 1 Rocket - Pass Details

Date: 26 May 2022
Orbit: 615 x 827 km, 97.5° (Epoch: 29 June)

Event Time Altitude Azimuth Distance (km) Brightness Sun altitude
Exits shadow 00:44:09 16° 129° (SE) 1,620 5.0 -20.9°
Maximum altitude 00:47:05 36° 70° (ENE) 988 4.4 -20.7°
Drops below altitude 10° 00:51:01 10° 4° (N) 1,999 6.7 -20.4°
Sets 00:53:21 0° 356° (N) 2,925 7.6 -20.3°
